This is the latest recevied weather packets stored in our database for station/object HB9MIR-13. If no packets are shown the sender has not sent any weather packets the latest 10 day(s).
| Time | Temp. | Humidity | Pressure | Rain* | Wind** | Luminosity | Snow |
|---|---|---|---|---|---|---|---|
| 1777156560 | 7.22° C | 77% | 1018.2 hPa | 0 mm | - | 0 W/m² | - |
| 1777155859 | 7.78° C | 77% | 1018.2 hPa | 0 mm | - | 0 W/m² | - |
| 1777155170 | 7.78° C | 75% | 1018.1 hPa | 0 mm | - | 0 W/m² | - |
| 1777154483 | 8.33° C | 73% | 1018 hPa | 0 mm | - | 0 W/m² | - |
| 1777153797 | 8.33° C | 73% | 1017.9 hPa | 0 mm | - | 0 W/m² | - |
| 1777153110 | 8.89° C | 71% | 1017.8 hPa | 0 mm | - | 0 W/m² | - |
| 1777152424 | 9.44° C | 70% | 1017.7 hPa | 0 mm | - | 0 W/m² | - |
| 1777151748 | 9.44° C | 67% | 1017.6 hPa | 0 mm | - | 0 W/m² | - |
| 1777151046 | 9.44° C | 67% | 1017.4 hPa | 0 mm | - | 0 W/m² | - |
| 1777150358 | 10° C | 68% | 1017.3 hPa | 0 mm | - | 0 W/m² | - |
| 1777149671 | 10.56° C | 63% | 1017.1 hPa | 0 mm | - | 0 W/m² | - |
| 1777148984 | 10.56° C | 66% | 1016.9 hPa | 0 mm | - | 0 W/m² | - |
| 1777148247 | 11.11° C | 64% | 1016.8 hPa | 0 mm | - | 0 W/m² | - |
| 1777147547 | 11.67° C | 66% | 1016.7 hPa | 0 mm | - | 0 W/m² | - |
| 1777146860 | 11.67° C | 64% | 1016.4 hPa | 0 mm | - | 0 W/m² | - |
| 1777146173 | 12.22° C | 60% | 1016.3 hPa | 0 mm | - | 0 W/m² | - |
| 1777145486 | 13.33° C | 57% | 1016.1 hPa | 0 mm | - | 0 W/m² | - |
| 1777144749 | 13.89° C | 55% | 1015.9 hPa | 0 mm | - | 0 W/m² | - |
| 1777144048 | 13.89° C | 56% | 1015.6 hPa | 0 mm | - | 0 W/m² | - |
| 1777143360 | 15° C | 57% | 1015.3 hPa | 0 mm | - | 0 W/m² | - |
| 1777142672 | 17.78° C | 50% | 1015.1 hPa | 0 mm | - | 0 W/m² | - |
| 1777141985 | 18.33° C | 50% | 1015.4 hPa | 0 mm | - | 0 W/m² | - |
| 1777141248 | 18.33° C | 49% | 1015.2 hPa | 0 mm | - | 0 W/m² | - |
| 1777140547 | 18.33° C | 49% | 1015.2 hPa | 0 mm | - | 0 W/m² | - |
| 1777139859 | 18.89° C | 48% | 1015 hPa | 0 mm | - | 0 W/m² | - |
* Rain latest hour (hover to see other rain measurements)
** Current wind speed in m/s (hover to see current wind gust speed)